Starlink 4683

operational
NORAD ID: 53712 Int'l Des: 2022-107 Owner: SPXS Country: US Constellation: starlink
LEOCIRCULAR

Starlink 4683について

説明を読み込み中...

リアルタイム位置

3D地球を読み込み中...

次回通過

高度履歴

Altitude vs Time

uPlot chart will show altitude changes over time

軌道要素

1 53712U 22107N 25307.78763617 .00001942 00000-0 14006-3 0 9992
2 53712 53.2159 93.8566 0001152 82.8613 277.2510 15.08848537175498
Epoch: Nov 3, 2025 • Age: 29 hours

現在のステータス

高度 539.7 km
速度 7.60 km/s
衛星直下点 17.63°N, 63.45°E
打ち上げ日 Sep 5, 2022
運用期間 3.1 years
タイプ internet

技術仕様

分類 Payload
質量 305.00 kg
乾燥質量 290.00 kg
総質量 305.00 kg
長さ 0.20 m
直径 2.80 m
スパン 9.00 m
形状 Box + pan
製造者 SPXS
バスタイプ Starlink
フェーズステータス In Orbit
所有者/国 SPXS/US

大規模コンステレーション

Loading constellations...